WetterOnline ( https://www.wetteronline.at )

Wetter aktuell Sankt Peter-Ording

Aktuelles Wetter: St. Peter-Ording (11m)

6-stündlich | Neueste Meldungen
Ortszeit Temperatur Wetter
Mo, 05.12. 13:00 4.4° C bedeckt
Mo, 05.12. 7:00 4.1° C bedeckt
Mo, 05.12. 1:00 4.3° C bedeckt
So, 04.12. 19:00 4.0° C bedeckt
So, 04.12. 13:00 3.6° C bedeckt
So, 04.12. 7:00 0.5° C bedeckt
So, 04.12. 1:00 1.7° C bewölkt
Sa, 03.12. 19:00 2.4° C bedeckt
Ortszeit Temperatur Wetter
Mo, 05.12. 15:00 4.5° C bedeckt
Mo, 05.12. 14:50 4.5° C bedeckt
Mo, 05.12. 14:40 4.5° C bedeckt
Mo, 05.12. 14:30 4.5° C bedeckt
Mo, 05.12. 14:20 4.5° C bedeckt
Mo, 05.12. 14:10 4.5° C bedeckt
Mo, 05.12. 14:00 4.5° C bedeckt
Mo, 05.12. 13:30 4.5° C leichter Regen
Mo, 05.12. 13:00 4.4° C bedeckt
Mo, 05.12. 12:30 4.4° C bedeckt
Mo, 05.12. 12:00 4.3° C bedeckt
Ortszeit Relative Feuchte Sichtweite
Mo, 05.12. 13:00 93% 17 km
Mo, 05.12. 7:00 92% 18 km
Mo, 05.12. 1:00 95% 10 km
So, 04.12. 19:00 93% 10 km
So, 04.12. 13:00 89% 12 km
So, 04.12. 7:00 88% 10 km
So, 04.12. 1:00 87% 17 km
Sa, 03.12. 19:00 94% 13 km
Ortszeit Relative Feuchte Sichtweite
Mo, 05.12. 15:00 92% 29 km
Mo, 05.12. 14:50 92% -
Mo, 05.12. 14:40 93% -
Mo, 05.12. 14:30 92% 29 km
Mo, 05.12. 14:20 92% -
Mo, 05.12. 14:10 92% -
Mo, 05.12. 14:00 91% 29 km
Mo, 05.12. 13:30 92% 28 km
Mo, 05.12. 13:00 93% 17 km
Mo, 05.12. 12:30 94% 21 km
Mo, 05.12. 12:00 95% 17 km
Ortszeit Niederschlagsmenge Niederschlagsart
Mo, 05.12. 13:00 0.1 l/m2 in 6 Std. Niederschlag
Mo, 05.12. 7:00 0.1 l/m2 in 12 Std. Niederschlag
Mo, 05.12. 1:00 0.1 l/m2 in 6 Std. Niederschlag
So, 04.12. 19:00 0.1 l/m2 in 12 Std. Niederschlag
So, 04.12. 13:00 0.0 l/m2 in 6 Std. -
So, 04.12. 7:00 0.6 l/m2 in 12 Std. -
So, 04.12. 1:00 0.6 l/m2 in 6 Std. Niederschlag
Sa, 03.12. 19:00 2 l/m2 in 12 Std. Niederschlag
Ortszeit Niederschlagsmenge Niederschlagsart
Mo, 05.12. 15:00 0.0 l/m2 in 1 Std. -
Mo, 05.12. 14:50 keine Meldung -
Mo, 05.12. 14:40 keine Meldung -
Mo, 05.12. 14:30 0.0 l/m2 in 30 Min -
Mo, 05.12. 14:20 keine Meldung -
Mo, 05.12. 14:10 keine Meldung -
Mo, 05.12. 14:00 <0.05 l/m2 in 1 Std. Niederschlag
Mo, 05.12. 13:30 <0.05 l/m2 in 30 Min -
Mo, 05.12. 13:00 <0.05 l/m2 in 1 Std. Niederschlag
Mo, 05.12. 12:30 <0.05 l/m2 in 30 Min Regen
Mo, 05.12. 12:00 0.0 l/m2 in 1 Std. -
Ortszeit Stärke Spitze Richtung
km/h Bft. km/h Grad Sektor
Mo, 05.12. 13:00 24 4 41 40° NO
Mo, 05.12. 7:00 22 4 40 40° NO
Mo, 05.12. 1:00 24 4 37 50° NO
So, 04.12. 19:00 20 4 33 40° NO
So, 04.12. 13:00 17 3 28 60° NO
So, 04.12. 7:00 13 3 35 80° O
So, 04.12. 1:00 20 4 31 90° O
Sa, 03.12. 19:00 13 3 31 80° O
Ortszeit Stärke Spitze Richtung
km/h Bft. km/h Grad Sektor
Mo, 05.12. 15:00 22 4 37 40° NO
Mo, 05.12. 14:50 22 4 - 40° NO
Mo, 05.12. 14:40 24 4 - 40° NO
Mo, 05.12. 14:30 24 4 37 40° NO
Mo, 05.12. 14:20 24 4 - 40° NO
Mo, 05.12. 14:10 25 4 - 40° NO
Mo, 05.12. 14:00 24 4 37 40° NO
Mo, 05.12. 13:30 24 4 37 40° NO
Mo, 05.12. 13:00 24 4 41 40° NO
Mo, 05.12. 12:30 26 4 41 40° NO
Mo, 05.12. 12:00 28 4 41 40° NO
Ortszeit Untergrenze Bedeckung Gattung
total tief tief mittel hoch
Mo, 05.12. 13:00 210 m 8/8 8/8 - - -
Mo, 05.12. 7:00 240 m 8/8 8/8 - - -
Mo, 05.12. 1:00 210 m 8/8 8/8 - - -
So, 04.12. 19:00 360 m 8/8 8/8 - - -
So, 04.12. 13:00 1050 m 8/8 8/8 - - -
So, 04.12. 7:00 810 m 8/8 8/8 - - -
So, 04.12. 1:00 540 m 7/8 7/8 - - -
Sa, 03.12. 19:00 300 m 8/8 8/8 - - -
Ortszeit Bedeckungsgrad in Achtel und Wolkenuntergrenze
Mo, 05.12. 15:00 8(240m)
Mo, 05.12. 14:50 8(240m)
Mo, 05.12. 14:40 8
Mo, 05.12. 14:30 8(240m)
Mo, 05.12. 14:20 8(240m)
Mo, 05.12. 14:10 8
Mo, 05.12. 14:00 8(240m)
Mo, 05.12. 13:30 8(240m)
Mo, 05.12. 13:00 8(210m)
Mo, 05.12. 12:30 8(180m)
Mo, 05.12. 12:00 8(150m)
Ortszeit Luftdruck NN (hPa) Tendenz (hPa in 3 Std.)
Mo, 05.12. 13:00 1021 - 0,7
Mo, 05.12. 7:00 1022 + 0,1
Mo, 05.12. 1:00 1022 - 1,0
So, 04.12. 19:00 1023 0,0
So, 04.12. 13:00 1023 - 0,7
So, 04.12. 7:00 1024 + 0,5
So, 04.12. 1:00 1023 - 0,4
Sa, 03.12. 19:00 1024 - 0,2
Ortszeit Luftdruck NN (hPa) Tendenz (hPa in 3 Std.)
Mo, 05.12. 15:00 1020 - 1,0
Mo, 05.12. 14:50 1020 keine Meldung
Mo, 05.12. 14:40 1020 keine Meldung
Mo, 05.12. 14:30 1020 - 1,2
Mo, 05.12. 14:20 1020 keine Meldung
Mo, 05.12. 14:10 1020 keine Meldung
Mo, 05.12. 14:00 1020 - 1,2
Mo, 05.12. 13:30 1020 - 0,8
Mo, 05.12. 13:00 1021 - 0,7
Mo, 05.12. 12:30 1021 - 0,5
Mo, 05.12. 12:00 1021 - 0,2
Ortszeit Schneehöhe (cm)
Mo, 05.12. 13:00 0
Mo, 05.12. 7:00 0
Mo, 05.12. 1:00 0
So, 04.12. 19:00 0
So, 04.12. 13:00 0
So, 04.12. 7:00 0
So, 04.12. 1:00 0
Sa, 03.12. 19:00 0
Ortszeit Schneehöhe (cm)
Mo, 05.12. 15:00 0
Mo, 05.12. 14:50 0
Mo, 05.12. 14:40 0
Mo, 05.12. 14:30 0
Mo, 05.12. 14:20 0
Mo, 05.12. 14:10 0
Mo, 05.12. 14:00 0
Mo, 05.12. 13:30 0
Mo, 05.12. 13:00 0
Mo, 05.12. 12:30 0
Mo, 05.12. 12:00 0
Link zu dieser Seite / Seite empfehlen

Das Wetter in ...